Lawton, OK

7:32 PM CST on December 10, 2016 (GMT -0600)
Lawton-Fort Sill Regional

Weather History for KLAW - March, 2013

Change the Weather History Date:

Friday, March 8, 2013

  Actual Average Record
Temperature  
Mean Temperature 59 °F -  
Max Temperature 64 °F 63 °F 82 °F (2006)
Min Temperature 54 °F 36 °F 12 °F (1967)
Degree Days  
Heating Degree Days 6    
Growing Degree Days 9 (Base 50)    
Moisture  
Dew Point 51 °F    
Average Humidity 77    
Maximum Humidity 100    
Minimum Humidity 49    
Precipitation  
Precipitation 0.00 in - - ()
Sea Level Pressure  
Sea Level Pressure 29.99 in    
Wind  
Wind Speed 13 mph (SSE)    
Max Wind Speed 20 mph    
Max Gust Speed 33 mph    
Visibility 8 miles    
Events      
Averages and records for this station are not official NWS values.
T = Trace of Precipitation, MM = Missing Value Source: NWS Daily Summary

Daily Weather History Graph

Daily Weather History Graph

Search for Another Location

Airport or City:

Trip Planner

Search our weather history database for the weather conditions in past years. The results will help you decide how hot, cold, wet, or windy it might be!

Date:

Astronomy

Mar. 08, 2013 Rise Set
Actual Time 6:53 AM CST 6:35 PM CST
Civil Twilight 6:28 AM CST 7:01 PM CST
Nautical Twilight 5:59 AM CST 7:30 PM CST
Astronomical Twilight 5:29 AM CST 7:59 PM CST
Moon 4:31 AM CST (3/8) 3:38 PM CST (3/8)
Length of Visible Light 12h 32m
Length of Day
11h 42m
Waning Crescent, 11% of the Moon is Illuminated
Mar 8
Waning Crescent
Mar 11
New
Mar 19
First Quarter
Mar 27
Full
Apr 2
Last Quarter

Hourly Weather History & Observations

Time (CST) Temp. Dew Point Humidity Pressure Visibility Wind Dir Wind Speed Gust Speed Precip Events Conditions
12:53 AM 55.0 °F 36.0 °F 49% 30.04 in 10.0 mi SE 9.2 mph - N/A   Clear
1:53 AM 55.0 °F 36.0 °F 49% 30.04 in 10.0 mi SSE 10.4 mph - N/A   Clear
2:53 AM 55.0 °F 37.0 °F 51% 30.02 in 10.0 mi SSE 10.4 mph - N/A   Clear
3:53 AM 54.0 °F 39.0 °F 57% 30.02 in 10.0 mi SSE 11.5 mph - N/A   Clear
4:53 AM 54.0 °F 41.0 °F 62% 30.02 in 10.0 mi SSE 10.4 mph - N/A   Clear
5:53 AM 54.0 °F 43.0 °F 66% 30.03 in 10.0 mi SSE 11.5 mph - N/A   Clear
6:53 AM 54.0 °F 45.0 °F 72% 30.05 in 10.0 mi SSE 11.5 mph - N/A   Overcast
7:53 AM 55.0 °F 46.9 °F 74% 30.05 in 10.0 mi SSE 12.7 mph - N/A   Overcast
8:07 AM 55.4 °F 46.4 °F 72% 30.06 in 10.0 mi SSE 10.4 mph - N/A   Overcast
8:53 AM 55.9 °F 48.0 °F 75% 30.07 in 10.0 mi SSE 12.7 mph - N/A   Overcast
9:53 AM 57.9 °F 51.1 °F 78% 30.08 in 10.0 mi SSE 12.7 mph - N/A   Overcast
10:08 AM 59.0 °F 51.8 °F 77% 30.08 in 10.0 mi SSE 12.7 mph - N/A   Overcast
10:53 AM 59.0 °F 51.1 °F 75% 30.06 in 10.0 mi SSE 15.0 mph 21.9 mph N/A   Overcast
11:22 AM 60.8 °F 51.8 °F 72% 30.06 in 10.0 mi SE 18.4 mph 24.2 mph N/A   Overcast
11:53 AM 61.0 °F 52.0 °F 72% 30.04 in 10.0 mi SSE 15.0 mph 23.0 mph N/A   Overcast
12:53 PM 62.1 °F 53.1 °F 72% 30.02 in 10.0 mi SSE 13.8 mph 20.7 mph N/A   Overcast
1:53 PM 64.0 °F 54.0 °F 70% 29.97 in 10.0 mi SSE 18.4 mph 33.4 mph N/A   Mostly Cloudy
2:53 PM 63.0 °F 54.0 °F 72% 29.95 in 10.0 mi SSE 17.3 mph 29.9 mph N/A   Overcast
3:53 PM 63.0 °F 55.0 °F 75% 29.94 in 10.0 mi SSE 17.3 mph 23.0 mph N/A   Overcast
4:53 PM 63.0 °F 55.0 °F 75% 29.93 in 10.0 mi SE 19.6 mph 25.3 mph N/A   Overcast
5:53 PM 62.1 °F 55.0 °F 78% 29.92 in 10.0 mi SSE 16.1 mph - N/A   Overcast
6:53 PM 61.0 °F 55.0 °F 81% 29.94 in 10.0 mi SE 13.8 mph 23.0 mph N/A   Overcast
7:29 PM 60.8 °F 55.4 °F 82% 29.94 in 10.0 mi SSE 16.1 mph - N/A   Overcast
7:53 PM 61.0 °F 55.9 °F 83% 29.94 in 10.0 mi SSE 15.0 mph - N/A   Overcast
8:08 PM 60.8 °F 55.4 °F 82% 29.95 in 9.0 mi SE 18.4 mph 21.9 mph N/A   Overcast
8:53 PM 59.0 °F 55.9 °F 90% 29.94 in 4.0 mi SE 15.0 mph 21.9 mph N/A   Overcast
9:08 PM 57.2 °F 57.2 °F 100% 29.94 in 2.5 mi SE 12.7 mph - N/A   Overcast
9:21 PM 57.2 °F 57.2 °F 100% 29.93 in 1.8 mi SE 13.8 mph - N/A   Overcast
9:35 PM 59.0 °F 57.2 °F 94% 29.93 in 2.0 mi SSE 13.8 mph - N/A   Overcast
9:53 PM 59.0 °F 57.9 °F 96% 29.90 in 2.0 mi SE 18.4 mph 24.2 mph N/A   Overcast
10:51 PM 59.0 °F 57.2 °F 94% 29.90 in 3.0 mi SE 15.0 mph 23.0 mph 0.00 in   Overcast
10:53 PM 59.0 °F 57.0 °F 93% 29.89 in 3.0 mi SSE 13.8 mph 23.0 mph 0.00 in   Overcast
11:53 PM 60.1 °F 57.0 °F 90% 29.89 in 5.0 mi SSE 12.7 mph - N/A   Overcast